Regional Weather Roundup
Issued by NWS

Home | Current Version | Previous Version | Text Only | Print | Product List | Glossary Off
Versions: 1 2 3 4 5 6 7 8 9 10 11 12 13 14 15 16 17 18 19 20 21 22 23 24 25 26 27

000
ASUS45 KPSR 251710
RWRAZ

ARIZONA HOURLY REGIONAL WEATHER ROUNDUP
NATIONAL WEATHER SERVICE PHOENIX AZ
1000 AM MST MON SEP 25 2017

NOTE: FAIR INDICATES FEW OR NO CLOUDS BELOW 12,000 FEET WITH NO
SIGNIFICANT WEATHER AND/OR OBSTRUCTIONS TO VISIBILITY.

AZZ001>003-036-251800-
NORTHWEST ARIZONA

CITY           SKY/WX    TMP DP  RH WIND       PRES   REMARKS
BULLHEAD CITY  PTSUNNY   73  34  23 N25G33    29.90F
KINGMAN        MOSUNNY   65  29  25 N10       30.01S
$$

AZZ004>008-015-016-018-251800-
NORTH CENTRAL ARIZONA

CITY           SKY/WX    TMP DP  RH WIND       PRES   REMARKS
GRAND CANYON   SUNNY     54  21  27 SE7       30.11S
WILLIAMS       SUNNY     57  14  18 E5        30.08S
PRESCOTT       SUNNY     59  20  22 VRB5      30.03S
FLAGSTAFF      SUNNY     54  15  21 NE9       30.10S
PAYSON           N/A     66  12  12 VRB6      30.01S
PAGE           SUNNY     59  28  30 NE5       30.07S
$$

AZZ009>014-017-251800-
NORTHEAST ARIZONA

CITY           SKY/WX    TMP DP  RH WIND       PRES   REMARKS
WINSLOW        SUNNY     59  19  21 NW6       30.06S
SAINT JOHNS    SUNNY     55  12  18 N3        30.04F
WINDOW ROCK    SUNNY     59  15  18 E7        30.09F
SHOW LOW       SUNNY     52  16  24 CALM      30.08S
$$

AZZ540-542>544-546-548-251800-
GREATER PHOENIX AREA

CITY           SKY/WX    TMP DP  RH WIND       PRES   REMARKS
PHOENIX        MOSUNNY   75  24  15 CALM      29.83R
BUCKEYE        SUNNY     75  18  11 S5        29.85R
GLENDALE       MOSUNNY   73  23  15 VRB3      29.85S
LUKE AFB       SUNNY     74  25  16 CALM      29.83R
DEER VALLEY    SUNNY     74  16  11 CALM      29.83F
SCOTTSDALE     SUNNY     74  23  15 SW5       29.86R
MESA-FALCON    MOSUNNY   75  19  12 CALM      29.85S
MESA-GATEWAY   SUNNY     72  23  16 S5        29.86R
CHANDLER       SUNNY     72  23  16 E3        29.84S
$$

AZZ539-553-251800-
SOUTHWEST MARICOPA COUNTY AND PINAL COUNTY

CITY           SKY/WX    TMP DP  RH WIND       PRES   REMARKS
CASA GRANDE    NOT AVBL
GILA BEND      SUNNY     73  18  12 N5        29.83S
$$

AZZ503-504-507>509-251800-
SOUTHEAST ARIZONA

CITY           SKY/WX    TMP DP  RH WIND       PRES   REMARKS
TUCSON         SUNNY     73  19  13 E5        29.89F
DAVIS-MONTHAN  SUNNY     75  21  13 CALM      29.87F
RYAN FIELD     SUNNY     75  19  12 MISG      29.88F
NOGALES        SUNNY     72  28  19 SW3       29.92F
SIERRA VISTA   SUNNY     72  25  17 E6        29.97S
DOUGLAS        SUNNY     71  27  19 SW5       29.94F
SAFFORD        SUNNY     71  23  16 VRB3      29.89F
$$

AZZ532-251800-
SOUTHWEST ARIZONA

CITY           SKY/WX    TMP DP  RH WIND       PRES   REMARKS
YUMA           MOSUNNY   81  27  14 N15       29.83S
$$

CAZ041-043-047-048-061-525>527-560>570-251800-
SOUTHERN CALIFORNIA

CITY           SKY/WX    TMP DP  RH WIND       PRES   REMARKS
DOWNTOWN L.A.  SUNNY     79  38  22 CALM      29.85F
L.A. AIRPORT   MOSUNNY   78  32  18 CALM      29.86S
SAN DIEGO      MOSUNNY   74  34  23 CALM      29.87F
BURBANK        SUNNY     76  27  16 CALM      29.87F
ONTARIO        MOSUNNY   77  29  17 SW8       29.88S
RIVERSIDE      SUNNY     81  25  12 VRB7G21   29.88F
PALM SPRINGS   SUNNY     83  20   9 W5        29.90F
EL CENTRO NAS  MOSUNNY   81  26  13 NW15      29.86S
IMPERIAL       PTSUNNY   83  41  22 N13       29.84S
BLYTHE         MOSUNNY   80  30  16 N17       29.86S
NEEDLES        PTSUNNY   77  31  18 N22G30    29.90F
$$

NVZ020-UTZ003-251800-
SOUTHERN NEVADA-UTAH

CITY           SKY/WX    TMP DP  RH WIND       PRES   REMARKS
LAS VEGAS      MOSUNNY   69  29  22 NE9       30.00F
SALT LAKE CITY MOSUNNY   51  39  63 CALM      30.14F
$$

NMZ009-TXZ055-251800-
NEW MEXICO-WEST TEXAS

CITY           SKY/WX    TMP DP  RH WIND       PRES   REMARKS
ALBUQUERQUE    MOSUNNY   62  24  23 NW9       30.00F
EL PASO        MOSUNNY   79  42  26 W12G18    29.89S
$$


........................KEY........................
SKY/WX - SKY CONDITION/WEATHER
TMP    - TEMPERATURE IN FAHRENHEIT
DP     - DEW POINT IN FAHRENHEIT
RH     - RELATIVE HUMIDITY IN PERCENT
WIND   - DIRECTION AND SPEED IN MILES PER HOUR (MPH)
VRB    - VARIABLE WIND DIRECTION
PRES   - MEAN SEA LEVEL PRESSURE IN INCHES OF MERCURY
         F - FALLING PRESSURE   R - RISING PRESSURE
         S - STEADY PRESSURE
VSB    - VISIBILITY IN MILES
HX     - HEAT INDEX IN FAHRENHEIT
WCI    - WIND CHILL INDEX IN FAHRENHEIT
TC     - TEMPERATURE IN CELSIUS WHICH IS ALSO KNOWN AS
         TEMPERATURE IN CENTIGRADE
AFB    - AIR FORCE BASE
         LUKE AFB IS LUKE AIR FORCE BASE
         DAVIS-MONTHAN IS DAVIS-MONTHAN AIR FORCE BASE
NAS    - NAVAL AIR STATION
         EL CENTRO NAS IS EL CENTRO NAVAL AIR STATION
N/A    - NOT AVAILABLE





USA.gov is the U.S. government's official web portal to all federal, state and local government web resources and services.